| time (UTC) | temp F | wind direction | speed knots | gust knots | rain 1hr in | rain 24hr in | rain mn in | humidity % | barometer mb |
| 20260506034015 | 47 | 299 | 0.9 | 0.9 | 0.07 | 1.05 | 1.05 | 97 | 1009.9 |
| 20260506033512 | 47 | 322 | 0.0 | 0.9 | 0.14 | 1.05 | 1.05 | 97 | 1009.9 |
| 20260506033009 | 47 | 21 | 0.0 | 0.0 | 0.12 | 1.04 | 1.04 | 97 | 1009.8 |
| 20260506032506 | 47 | 348 | 0.0 | 0.0 | 0.07 | 1.02 | 1.02 | 97 | 1009.6 |
| 20260506032002 | 47 | 14 | 0.0 | 0.0 | 0.12 | 1.02 | 1.02 | 97 | 1009.6 |
| 20260506031500 | 47 | 332 | 0.9 | 1.7 | 0.12 | 1.01 | 1.01 | 97 | 1009.7 |
| 20260506030957 | 47 | 345 | 0.0 | 0.9 | 0.12 | 1.00 | 1.00 | 97 | 1009.9 |
| 20260506030455 | 47 | 338 | 0.9 | 0.9 | 0.12 | 0.99 | 0.99 | 97 | 1009.9 |
| 20260506025952 | 47 | 306 | 0.9 | 0.9 | 0.07 | 0.98 | 0.98 | 97 | 1010.0 |
| 20260506025449 | 47 | 48 | 0.9 | 1.7 | 0.05 | 0.97 | 0.97 | 97 | 1009.8 |
| 20260506024945 | 47 | 83 | 0.0 | 0.0 | 0.12 | 0.96 | 0.96 | 97 | 1010.1 |
| 20260506024442 | 47 | 111 | 0.0 | 0.0 | 0.12 | 0.95 | 0.95 | 97 | 1010.0 |
| 20260506023938 | 47 | 121 | 0.0 | 0.0 | 0.12 | 0.94 | 0.94 | 97 | 1010.0 |
| 20260506023435 | 47 | 121 | 0.0 | 0.0 | 0.19 | 0.93 | 0.93 | 97 | 1010.0 |
| 20260506022932 | 47 | 152 | 0.0 | 0.0 | 0.12 | 0.91 | 0.91 | 97 | 1010.2 |
| 20260506022429 | 47 | 128 | 0.0 | 0.0 | 0.17 | 0.90 | 0.90 | 97 | 1010.1 |
| 20260506021927 | 48 | 234 | 0.0 | 0.0 | 0.19 | 0.89 | 0.89 | 97 | 1010.1 |
| 20260506021424 | 48 | 272 | 0.0 | 0.0 | 0.19 | 0.87 | 0.87 | 97 | 1010.3 |
| 20260506020921 | 48 | 255 | 0.0 | 0.0 | 0.17 | 0.86 | 0.86 | 97 | 1010.0 |
| 20260506020419 | 48 | 213 | 0.0 | 0.0 | 0.12 | 0.84 | 0.84 | 97 | 1010.0 |
| 20260506015916 | 48 | 164 | 0.0 | 0.0 | 0.12 | 0.83 | 0.83 | 97 | 1010.1 |
| 20260506015414 | 47 | 302 | 0.9 | 1.7 | 0.12 | 0.82 | 0.82 | 97 | 1010.1 |
| 20260506014910 | 48 | 285 | 0.0 | 0.9 | 0.12 | 0.81 | 0.81 | 97 | 1009.9 |
| 20260506014407 | 48 | 289 | 0.9 | 1.7 | 0.19 | 0.80 | 0.80 | 97 | 1010.0 |
| 20260506013904 | 48 | 282 | 0.9 | 1.7 | 0.12 | 0.78 | 0.78 | 97 | 1010.1 |
| 20260506013402 | 48 | 301 | 0.0 | 0.0 | 0.05 | 0.77 | 0.77 | 97 | 1009.8 |
| 20260506012857 | 48 | 284 | 0.0 | 0.0 | 0.07 | 0.76 | 0.76 | 97 | 1009.8 |
| 20260506012354 | 48 | 26 | 0.0 | 0.0 | 0.12 | 0.76 | 0.76 | 97 | 1009.5 |
| 20260506011851 | 48 | 304 | 0.0 | 0.0 | 0.12 | 0.75 | 0.75 | 97 | 1009.5 |
| 20260506011348 | 48 | 353 | 0.0 | 0.0 | 0.12 | 0.74 | 0.74 | 97 | 1009.5 |
| 20260506010845 | 48 | 308 | 0.0 | 0.9 | 0.05 | 0.73 | 0.73 | 97 | 1009.4 |
| 20260506010344 | 48 | 302 | 1.7 | 1.7 | 0.07 | 0.72 | 0.72 | 96 | 1009.6 |
| 20260506005840 | 48 | 303 | 0.0 | 0.0 | 0.05 | 0.71 | 0.71 | 97 | 1009.6 |
| 20260506005337 | 48 | 319 | 0.0 | 0.0 | 0.05 | 0.71 | 0.71 | 97 | 1009.4 |
| 20260506004833 | 48 | 311 | 0.0 | 0.0 | 0.07 | 0.70 | 0.70 | 97 | 1009.4 |
| 20260506004331 | 48 | 338 | 0.0 | 0.0 | 0.12 | 0.70 | 0.70 | 97 | 1009.5 |
| 20260506003827 | 48 | 347 | 0.0 | 0.0 | 0.05 | 0.69 | 0.69 | 97 | 1009.4 |
| 20260506003323 | 48 | 28 | 0.0 | 0.9 | 0.07 | 0.68 | 0.68 | 96 | 1009.4 |
| 20260506002820 | 48 | 350 | 0.0 | 0.0 | 0.14 | 0.68 | 0.68 | 96 | 1009.1 |
| 20260506002316 | 48 | 37 | 0.0 | 0.0 | 0.12 | 0.67 | 0.67 | 96 | 1009.4 |
| 20260506001812 | 48 | 356 | 0.0 | 0.0 | 0.05 | 0.66 | 0.66 | 96 | 1009.3 |
| 20260506001309 | 48 | 311 | 0.0 | 0.9 | 0.00 | 0.65 | 0.65 | 96 | 1009.2 |
| 20260506000806 | 48 | 333 | 0.9 | 1.7 | 0.07 | 0.65 | 0.65 | 96 | 1009.2 |
| 20260506000304 | 48 | 321 | 0.0 | 0.9 | 0.07 | 0.65 | 0.65 | 96 | 1009.1 |
| 20260505235800 | 49 | 348 | 0.0 | 0.0 | 0.05 | 0.64 | 0.64 | 96 | 1009.3 |
| 20260505235258 | 49 | 358 | 0.0 | 0.0 | 0.12 | 0.64 | 0.64 | 96 | 1009.1 |
| 20260505234755 | 49 | 308 | 0.0 | 0.0 | 0.05 | 0.62 | 0.62 | 96 | 1009.3 |
| 20260505234252 | 49 | 324 | 0.0 | 0.0 | 0.12 | 0.62 | 0.62 | 96 | 1009.1 |
| 20260505233749 | 49 | 336 | 1.7 | 2.6 | 0.07 | 0.61 | 0.61 | 96 | 1009.2 |
| 20260505233247 | 49 | 22 | 0.0 | 0.0 | 0.05 | 0.60 | 0.60 | 96 | 1009.4 |
| 20260505232744 | 49 | 329 | 0.0 | 0.0 | 0.05 | 0.60 | 0.60 | 96 | 1009.3 |
| 20260505232241 | 49 | 326 | 0.0 | 1.7 | 0.07 | 0.59 | 0.59 | 96 | 1009.5 |
| 20260505231737 | 49 | 6 | 0.9 | 1.7 | 0.07 | 0.59 | 0.59 | 96 | 1009.6 |
| 20260505231237 | 49 | 330 | 0.0 | 1.7 | 0.05 | 0.58 | 0.58 | 96 | 1009.6 |
| 20260505230735 | 49 | 325 | 0.0 | 0.0 | 0.05 | 0.58 | 0.58 | 96 | 1009.4 |
| 20260505230231 | 49 | 326 | 0.9 | 3.5 | 0.00 | 0.57 | 0.57 | 96 | 1009.3 |
| 20260505225727 | 49 | 344 | 1.7 | 5.2 | 0.00 | 0.57 | 0.57 | 96 | 1009.2 |
| 20260505225225 | 49 | 317 | 0.9 | 1.7 | 0.07 | 0.57 | 0.57 | 96 | 1009.1 |
| 20260505224720 | 49 | 18 | 0.0 | 0.0 | 0.07 | 0.57 | 0.57 | 96 | 1009.1 |
| 20260505224218 | 49 | 348 | 1.7 | 2.6 | 0.05 | 0.56 | 0.56 | 96 | 1008.8 |
| 20260505223715 | 49 | 336 | 0.0 | 1.7 | 0.05 | 0.56 | 0.56 | 96 | 1008.8 |
| 20260505223211 | 49 | 338 | 1.7 | 2.6 | 0.07 | 0.55 | 0.55 | 96 | 1009.0 |
| 20260505222707 | 49 | 327 | 0.9 | 1.7 | 0.07 | 0.55 | 0.55 | 96 | 1009.2 |
| 20260505222203 | 49 | 350 | 0.9 | 1.7 | 0.00 | 0.54 | 0.54 | 96 | 1009.0 |
| 20260505221701 | 49 | 342 | 0.9 | 2.6 | 0.00 | 0.54 | 0.54 | 96 | 1008.9 |
| 20260505221157 | 49 | 33 | 0.9 | 1.7 | 0.07 | 0.54 | 0.54 | 96 | 1008.9 |
| 20260505220654 | 50 | 347 | 1.7 | 3.5 | 0.07 | 0.54 | 0.54 | 96 | 1008.7 |
| 20260505220152 | 50 | 17 | 1.7 | 1.7 | 0.00 | 0.53 | 0.53 | 96 | 1008.6 |
| 20260505215650 | 50 | 340 | 1.7 | 2.6 | 0.00 | 0.53 | 0.53 | 96 | 1008.8 |
| 20260505215147 | 50 | 322 | 1.7 | 5.2 | 0.00 | 0.53 | 0.53 | 96 | 1008.6 |
| 20260505214645 | 50 | 293 | 1.7 | 6.1 | 0.00 | 0.53 | 0.53 | 96 | 1008.7 |
| 20260505214142 | 50 | 299 | 1.7 | 2.6 | 0.00 | 0.53 | 0.53 | 96 | 1008.6 |
| 20260505213640 | 50 | 341 | 4.3 | 6.1 | 0.05 | 0.53 | 0.53 | 95 | 1008.7 |
| 20260505213136 | 50 | 291 | 0.0 | 1.7 | 0.05 | 0.53 | 0.53 | 96 | 1008.8 |
| 20260505212632 | 50 | 333 | 0.0 | 1.7 | 0.07 | 0.52 | 0.52 | 95 | 1009.0 |
| 20260505212130 | 51 | 310 | 0.9 | 0.9 | 0.12 | 0.52 | 0.52 | 95 | 1008.9 |
| 20260505211627 | 51 | 308 | 0.0 | 0.9 | 0.12 | 0.50 | 0.50 | 95 | 1009.0 |
| 20260505211124 | 50 | 306 | 1.7 | 1.7 | 0.05 | 0.49 | 0.49 | 95 | 1008.8 |
| 20260505210620 | 50 | 323 | 1.7 | 1.7 | 0.12 | 0.48 | 0.48 | 95 | 1008.6 |
| 20260505210118 | 50 | 341 | 1.7 | 2.6 | 0.17 | 0.47 | 0.47 | 95 | 1008.6 |
| 20260505205615 | 51 | 312 | 2.6 | 3.5 | 0.31 | 0.46 | 0.46 | 95 | 1008.8 |
| 20260505205113 | 51 | 289 | 1.7 | 1.7 | 0.26 | 0.44 | 0.44 | 95 | 1008.6 |
| 20260505204609 | 50 | 286 | 0.9 | 1.7 | 0.19 | 0.41 | 0.41 | 95 | 1008.9 |
| 20260505204107 | 50 | 304 | 1.7 | 1.7 | 0.24 | 0.40 | 0.40 | 95 | 1008.6 |
| 20260505203603 | 50 | 322 | 0.9 | 2.6 | 0.35 | 0.38 | 0.38 | 94 | 1008.8 |
| 20260505203101 | 50 | 346 | 0.9 | 1.7 | 0.31 | 0.35 | 0.35 | 94 | 1008.8 |
| 20260505202556 | 50 | 341 | 3.5 | 5.2 | 0.12 | 0.31 | 0.31 | 94 | 1008.6 |
| 20260505202053 | 51 | 302 | 0.9 | 1.7 | 0.07 | 0.29 | 0.29 | 94 | 1008.6 |
| 20260505201549 | 51 | 301 | 1.7 | 2.6 | 0.07 | 0.29 | 0.29 | 94 | 1008.6 |
| 20260505201047 | 51 | 329 | 1.7 | 2.6 | 0.00 | 0.28 | 0.28 | 94 | 1008.7 |
| 20260505200545 | 51 | 317 | 3.5 | 5.2 | 0.07 | 0.28 | 0.28 | 94 | 1008.4 |
| 20260505200042 | 51 | 298 | 0.9 | 2.6 | 0.07 | 0.28 | 0.28 | 94 | 1008.5 |
| 20260505195538 | 52 | 332 | 3.5 | 3.5 | 0.12 | 0.27 | 0.27 | 94 | 1008.5 |
| 20260505195036 | 52 | 308 | 1.7 | 3.5 | 0.12 | 0.27 | 0.27 | 94 | 1008.2 |
| 20260505194532 | 52 | 43 | 0.9 | 1.7 | 0.05 | 0.25 | 0.25 | 94 | 1008.9 |
| 20260505194027 | 53 | 306 | 0.9 | 1.7 | 0.05 | 0.25 | 0.25 | 94 | 1009.1 |
| 20260505193525 | 53 | 15 | 0.9 | 1.7 | 0.07 | 0.24 | 0.24 | 94 | 1008.9 |
| 20260505193022 | 53 | 310 | 0.9 | 0.9 | 0.05 | 0.23 | 0.23 | 94 | 1009.1 |
| 20260505192521 | 52 | 283 | 0.0 | 0.9 | 0.17 | 0.23 | 0.23 | 93 | 1009.1 |
| 20260505192018 | 52 | 305 | 0.9 | 0.9 | 0.19 | 0.22 | 0.22 | 93 | 1009.2 |
| 20260505191511 | 52 | 298 | 0.9 | 1.7 | 0.12 | 0.20 | 0.20 | 92 | 1009.4 |
| 20260505191009 | 52 | 303 | 0.9 | 2.6 | 0.12 | 0.19 | 0.19 | 92 | 1009.4 |
| 20260505190503 | 52 | 285 | 0.0 | 0.9 | 0.07 | 0.18 | 0.18 | 91 | 1009.4 |
| 20260505185958 | 52 | 293 | 2.6 | 2.6 | 0.07 | 0.17 | 0.17 | 91 | 1009.3 |
| 20260505185456 | 53 | 295 | 0.9 | 1.7 | 0.12 | 0.17 | 0.17 | 90 | 1009.3 |
| 20260505184951 | 53 | 279 | 0.9 | 1.7 | 0.12 | 0.16 | 0.16 | 90 | 1008.9 |
| 20260505184449 | 53 | 300 | 0.9 | 1.7 | 0.12 | 0.15 | 0.15 | 89 | 1009.2 |
| 20260505183945 | 53 | 305 | 0.0 | 0.9 | 0.05 | 0.14 | 0.14 | 88 | 1009.1 |
| 20260505183442 | 53 | 270 | 0.9 | 1.7 | 0.07 | 0.13 | 0.13 | 88 | 1009.3 |
| 20260505182939 | 52 | 315 | 0.9 | 1.7 | 0.07 | 0.13 | 0.13 | 88 | 1009.0 |
| 20260505182437 | 53 | 297 | 1.7 | 2.6 | 0.00 | 0.12 | 0.12 | 88 | 1008.8 |
| 20260505181932 | 53 | 305 | 0.9 | 1.7 | 0.00 | 0.12 | 0.12 | 88 | 1008.9 |
| 20260505181430 | 53 | 318 | 1.7 | 1.7 | 0.00 | 0.12 | 0.12 | 88 | 1008.9 |
| 20260505180927 | 53 | 294 | 0.9 | 0.9 | 0.00 | 0.12 | 0.12 | 88 | 1008.8 |
| 20260505180423 | 53 | 253 | 0.0 | 1.7 | 0.05 | 0.12 | 0.12 | 88 | 1008.7 |
| 20260505175920 | 54 | 350 | 0.0 | 0.9 | 0.07 | 0.11 | 0.11 | 89 | 1008.7 |
| 20260505175416 | 54 | 260 | 0.9 | 1.7 | 0.07 | 0.11 | 0.11 | 89 | 1008.7 |
| 20260505174912 | 54 | 246 | 1.7 | 2.6 | 0.12 | 0.10 | 0.10 | 89 | 1008.7 |
| 20260505174409 | 55 | 190 | 0.9 | 1.7 | 0.17 | 0.10 | 0.10 | 90 | 1008.5 |
| 20260505173901 | 55 | 287 | 0.9 | 1.7 | 0.12 | 0.08 | 0.08 | 89 | 1008.8 |
| 20260505173357 | 55 | 303 | 0.9 | 3.5 | 0.05 | 0.06 | 0.06 | 89 | 1008.9 |
| 20260505172853 | 55 | 290 | 1.7 | 2.6 | 0.12 | 0.06 | 0.06 | 88 | 1008.6 |
| 20260505172352 | 55 | 277 | 2.6 | 6.1 | 0.14 | 0.05 | 0.05 | 88 | 1009.1 |
| 20260505171850 | 56 | 267 | 0.9 | 2.6 | 0.12 | 0.04 | 0.04 | 87 | 1008.9 |
| 20260505171348 | 56 | 290 | 1.7 | 2.6 | 0.12 | 0.03 | 0.03 | 86 | 1008.8 |
| 20260505170845 | 57 | 279 | 1.7 | 5.2 | 0.12 | 0.02 | 0.02 | 85 | 1008.9 |
| 20260505170342 | 58 | 297 | 0.9 | 2.6 | 0.00 | 0.00 | 0.00 | 84 | 1008.8 |
| 20260505165837 | 59 | 282 | 2.6 | 7.8 | 0.00 | 0.00 | 0.00 | 82 | 1009.1 |
| 20260505165332 | 59 | 291 | 5.2 | 6.1 | 0.00 | 0.00 | 0.00 | 80 | 1009.0 |
| 20260505164829 | 59 | 247 | 5.2 | 7.0 | 0.00 | 0.00 | 0.00 | 78 | 1009.1 |
| 20260505164325 | 59 | 303 | 1.7 | 7.8 | 0.00 | 0.00 | 0.00 | 77 | 1008.9 |
| 20260505163823 | 60 | 253 | 2.6 | 2.6 | 0.00 | 0.00 | 0.00 | 78 | 1009.0 |
| 20260505163322 | 60 | 276 | 4.3 | 6.1 | 0.00 | 0.00 | 0.00 | 78 | 1009.0 |
| 20260505162819 | 60 | 222 | 0.9 | 3.5 | 0.00 | 0.00 | 0.00 | 77 | 1008.9 |
| 20260505162315 | 60 | 204 | 2.6 | 8.7 | 0.00 | 0.00 | 0.00 | 75 | 1009.1 |
| 20260505161813 | 60 | 257 | 2.6 | 3.5 | 0.00 | 0.00 | 0.00 | 75 | 1008.9 |
| 20260505161310 | 60 | 293 | 3.5 | 5.2 | 0.00 | 0.00 | 0.00 | 75 | 1008.9 |
| 20260505160807 | 60 | 294 | 2.6 | 5.2 | 0.00 | 0.00 | 0.00 | 75 | 1008.9 |
| 20260505160305 | 60 | 279 | 5.2 | 8.7 | 0.00 | 0.00 | 0.00 | 75 | 1008.7 |
| 20260505153244 | 61 | 322 | 4.3 | 6.1 | 0.00 | 0.00 | 0.00 | 75 | 1008.7 |
| 20260505152741 | 61 | 294 | 3.5 | 7.0 | 0.00 | 0.00 | 0.00 | 75 | 1008.5 |
| 20260505152237 | 61 | 302 | 1.7 | 6.1 | 0.00 | 0.00 | 0.00 | 75 | 1008.7 |
| 20260505151731 | 61 | 296 | 7.0 | 9.6 | 0.00 | 0.00 | 0.00 | 75 | 1008.7 |
| 20260505151229 | 61 | 12 | 3.5 | 9.6 | 0.00 | 0.00 | 0.00 | 74 | 1008.5 |
| 20260505150726 | 61 | 321 | 3.5 | 7.8 | 0.00 | 0.00 | 0.00 | 74 | 1008.4 |
| 20260505150223 | 62 | 339 | 5.2 | 14.8 | 0.00 | 0.00 | 0.00 | 73 | 1008.6 |
| 20260505140651 | 64 | 204 | 3.5 | 5.2 | 0.00 | 0.00 | 0.00 | 68 | 1006.8 |
| 20260505140149 | 64 | 217 | 4.3 | 20.9 | 0.00 | 0.00 | 0.00 | 68 | 1006.7 |
| 20260505130112 | 63 | 300 | 2.6 | 5.2 | 0.00 | 0.00 | 0.00 | 70 | 1006.6 |
| 20260505124602 | 61 | 196 | 4.3 | 8.7 | 0.00 | 0.00 | 0.00 | 72 | 1006.9 |
| 20260505124058 | 61 | 161 | 3.5 | 7.0 | 0.00 | 0.00 | 0.00 | 74 | 1006.7 |
| 20260505123554 | 61 | 153 | 7.0 | 9.6 | 0.00 | 0.00 | 0.00 | 75 | 1006.9 |
| 20260505123051 | 61 | 225 | 3.5 | 6.1 | 0.00 | 0.00 | 0.00 | 75 | 1006.8 |
| 20260505122548 | 60 | 317 | 1.7 | 5.2 | 0.00 | 0.00 | 0.00 | 76 | 1006.8 |
| 20260505122045 | 59 | 241 | 2.6 | 8.7 | 0.00 | 0.00 | 0.00 | 77 | 1006.8 |
| 20260505121541 | 59 | 144 | 3.5 | 5.2 | 0.00 | 0.00 | 0.00 | 78 | 1006.9 |
| 20260505121038 | 59 | 199 | 2.6 | 7.0 | 0.00 | 0.00 | 0.00 | 77 | 1006.8 |
| 20260505120534 | 59 | 315 | 2.6 | 7.0 | 0.00 | 0.00 | 0.00 | 76 | 1006.7 |
| 20260505120030 | 59 | 255 | 1.7 | 5.2 | 0.00 | 0.00 | 0.00 | 76 | 1006.8 |
| 20260505115525 | 59 | 169 | 1.7 | 7.8 | 0.00 | 0.00 | 0.00 | 75 | 1006.8 |
| 20260505115023 | 60 | 322 | 5.2 | 7.8 | 0.00 | 0.00 | 0.00 | 75 | 1006.7 |
| 20260505114520 | 59 | 250 | 3.5 | 5.2 | 0.00 | 0.00 | 0.00 | 74 | 1006.6 |
| 20260505114016 | 59 | 203 | 1.7 | 5.2 | 0.00 | 0.00 | 0.00 | 74 | 1006.4 |
| 20260505113512 | 59 | 230 | 1.7 | 7.0 | 0.00 | 0.00 | 0.00 | 74 | 1006.1 |
| 20260505113009 | 59 | 224 | 4.3 | 7.0 | 0.00 | 0.00 | 0.00 | 73 | 1005.9 |
| 20260505112505 | 59 | 196 | 1.7 | 3.5 | 0.00 | 0.00 | 0.00 | 74 | 1005.8 |
| 20260505112003 | 59 | 225 | 2.6 | 2.6 | 0.00 | 0.00 | 0.00 | 74 | 1005.6 |
| 20260505111501 | 59 | 224 | 1.7 | 1.7 | 0.00 | 0.00 | 0.00 | 74 | 1005.4 |
| 20260505110958 | 60 | 260 | 1.7 | 2.6 | 0.00 | 0.00 | 0.00 | 73 | 1005.5 |
| 20260505110455 | 60 | 341 | 0.9 | 1.7 | 0.00 | 0.00 | 0.00 | 73 | 1005.0 |
| 20260505101921 | 60 | 296 | 0.9 | 5.2 | 0.00 | 0.00 | 0.00 | 74 | 1004.5 |
| 20260505101421 | 60 | 303 | 1.7 | 5.2 | 0.00 | 0.00 | 0.00 | 74 | 1004.3 |
| 20260505100916 | 60 | 226 | 0.9 | 3.5 | 0.00 | 0.00 | 0.00 | 75 | 1004.3 |
| 20260505100413 | 60 | 207 | 1.7 | 2.6 | 0.00 | 0.00 | 0.00 | 75 | 1004.1 |
| 20260505095909 | 60 | 289 | 1.7 | 3.5 | 0.00 | 0.00 | 0.00 | 76 | 1004.0 |
| 20260505095406 | 59 | 240 | 0.9 | 5.2 | 0.00 | 0.00 | 0.00 | 76 | 1004.3 |
| 20260505094903 | 59 | 218 | 1.7 | 6.1 | 0.00 | 0.00 | 0.00 | 77 | 1004.2 |
| 20260505094400 | 59 | 209 | 2.6 | 2.6 | 0.00 | 0.00 | 0.00 | 78 | 1004.5 |
| 20260505093855 | 59 | 158 | 1.7 | 1.7 | 0.00 | 0.00 | 0.00 | 78 | 1004.4 |
| 20260505093353 | 59 | 236 | 0.9 | 2.6 | 0.00 | 0.00 | 0.00 | 78 | 1004.7 |
| 20260505092850 | 59 | 173 | 2.6 | 2.6 | 0.00 | 0.00 | 0.00 | 78 | 1004.6 |
| 20260505092348 | 59 | 200 | 1.7 | 3.5 | 0.00 | 0.00 | 0.00 | 79 | 1004.9 |
| 20260505091845 | 59 | 246 | 2.6 | 3.5 | 0.00 | 0.00 | 0.00 | 80 | 1004.6 |
| 20260505091343 | 59 | 210 | 1.7 | 2.6 | 0.00 | 0.00 | 0.00 | 80 | 1004.4 |
| 20260505090841 | 59 | 319 | 2.6 | 2.6 | 0.00 | 0.00 | 0.00 | 81 | 1004.6 |
| 20260505090339 | 59 | 239 | 2.6 | 3.5 | 0.00 | 0.00 | 0.00 | 81 | 1004.8 |
| 20260505085835 | 59 | 318 | 0.9 | 2.6 | 0.00 | 0.00 | 0.00 | 80 | 1004.8 |
| 20260505085334 | 59 | 192 | 5.2 | 7.8 | 0.00 | 0.00 | 0.00 | 79 | 1004.5 |
| 20260505084831 | 60 | 192 | 5.2 | 7.0 | 0.00 | 0.00 | 0.00 | 78 | 1004.4 |
| 20260505084329 | 59 | 252 | 3.5 | 5.2 | 0.00 | 0.00 | 0.00 | 78 | 1004.3 |
| 20260505083826 | 60 | 220 | 2.6 | 6.1 | 0.00 | 0.00 | 0.00 | 78 | 1004.2 |
| 20260505083324 | 60 | 163 | 3.5 | 6.1 | 0.00 | 0.00 | 0.00 | 78 | 1004.0 |
| 20260505082820 | 60 | 239 | 5.2 | 7.0 | 0.00 | 0.00 | 0.00 | 76 | 1004.2 |
| 20260505082311 | 60 | 279 | 1.7 | 6.1 | 0.00 | 0.00 | 0.00 | 75 | 1004.2 |
| 20260505081808 | 61 | 186 | 6.1 | 8.7 | 0.00 | 0.00 | 0.00 | 73 | 1004.4 |
| 20260505081305 | 62 | 297 | 2.6 | 9.6 | 0.00 | 0.00 | 0.00 | 72 | 1004.2 |
| 20260505080801 | 63 | 285 | 3.5 | 7.8 | 0.00 | 0.00 | 0.00 | 69 | 1004.5 |
| 20260505080257 | 63 | 249 | 1.7 | 7.0 | 0.00 | 0.00 | 0.00 | 67 | 1004.6 |
| 20260505075753 | 63 | 271 | 7.0 | 8.7 | 0.00 | 0.00 | 0.00 | 67 | 1004.5 |
| 20260505075250 | 63 | 268 | 2.6 | 7.8 | 0.00 | 0.00 | 0.00 | 66 | 1004.5 |
| 20260505074747 | 64 | 62 | 1.7 | 8.7 | 0.00 | 0.00 | 0.00 | 65 | 1004.4 |
| 20260505074244 | 64 | 283 | 6.1 | 8.7 | 0.00 | 0.00 | 0.00 | 65 | 1004.5 |
| 20260505073742 | 64 | 315 | 3.5 | 13.9 | 0.00 | 0.00 | 0.00 | 65 | 1004.4 |
| 20260505073239 | 64 | 264 | 2.6 | 6.1 | 0.00 | 0.00 | 0.00 | 66 | 1004.2 |
| 20260505072736 | 64 | 195 | 1.7 | 6.1 | 0.00 | 0.00 | 0.00 | 66 | 1004.4 |
| 20260505072232 | 64 | 332 | 1.7 | 3.5 | 0.00 | 0.00 | 0.00 | 66 | 1004.2 |
| 20260505071727 | 64 | 259 | 0.0 | 5.2 | 0.00 | 0.00 | 0.00 | 66 | 1004.1 |
| 20260505071225 | 64 | 153 | 1.7 | 3.5 | 0.00 | 0.00 | 0.00 | 66 | 1004.1 |
| 20260505070722 | 64 | 225 | 1.7 | 3.5 | 0.00 | 0.00 | 0.00 | 66 | 1003.9 |
| 20260505070219 | 64 | 188 | 1.7 | 5.2 | 0.00 | 0.00 | 0.00 | 65 | 1003.9 |
| 20260505065714 | 64 | 204 | 1.7 | 1.7 | 0.00 | 0.00 | 0.00 | 65 | 1004.1 |
| 20260505065212 | 65 | 340 | 0.0 | 1.7 | 0.00 | 0.00 | 0.00 | 64 | 1004.3 |
| 20260505064709 | 65 | 271 | 3.5 | 7.0 | 0.00 | 0.00 | 0.00 | 63 | 1004.2 |
| 20260505064206 | 66 | 276 | 3.5 | 7.0 | 0.00 | 0.00 | 0.00 | 62 | 1004.2 |
| 20260505063704 | 66 | 91 | 1.7 | 3.5 | 0.00 | 0.00 | 0.00 | 62 | 1004.2 |
| 20260505063200 | 66 | 279 | 2.6 | 3.5 | 0.00 | 0.00 | 0.00 | 61 | 1004.2 |
| 20260505062655 | 67 | 265 | 1.7 | 3.5 | 0.00 | 0.00 | 0.00 | 60 | 1004.2 |
| 20260505062154 | 67 | 308 | 0.9 | 2.6 | 0.00 | 0.00 | 0.00 | 60 | 1004.2 |
| 20260505061650 | 67 | 292 | 1.7 | 6.1 | 0.00 | 0.00 | 0.00 | 59 | 1004.2 |
| 20260505061149 | 68 | 323 | 2.6 | 6.1 | 0.00 | 0.00 | 0.00 | 58 | 1004.2 |
| 20260505060646 | 68 | 301 | 3.5 | 3.5 | 0.00 | 0.00 | 0.00 | 57 | 1004.0 |
| 20260505060142 | 68 | 260 | 1.7 | 12.2 | 0.00 | 0.00 | 0.00 | 57 | 1003.8 |
| 20260505055638 | 68 | 332 | 5.2 | 7.8 | 0.00 | 0.00 | 0.00 | 57 | 1004.0 |
| 20260505055135 | 68 | 321 | 2.6 | 5.2 | 0.00 | 0.00 | 0.00 | 56 | 1003.9 |
| 20260505054632 | 68 | 292 | 3.5 | 6.1 | 0.00 | 0.00 | 0.00 | 56 | 1003.5 |
| 20260505054130 | 68 | 308 | 1.7 | 3.5 | 0.00 | 0.00 | 0.00 | 57 | 1003.5 |
| 20260505053627 | 68 | 152 | 6.1 | 8.7 | 0.00 | 0.00 | 0.00 | 57 | 1003.3 |
| 20260505053123 | 68 | 241 | 2.6 | 5.2 | 0.00 | 0.00 | 0.00 | 57 | 1003.5 |
| 20260505052620 | 68 | 205 | 2.6 | 5.2 | 0.00 | 0.00 | 0.00 | 57 | 1003.7 |
| 20260505052118 | 68 | 339 | 2.6 | 6.1 | 0.00 | 0.00 | 0.00 | 57 | 1003.3 |
| 20260505051615 | 68 | 207 | 2.6 | 5.2 | 0.00 | 0.00 | 0.00 | 58 | 1003.2 |
| 20260505051113 | 68 | 139 | 3.5 | 9.6 | 0.00 | 0.00 | 0.00 | 57 | 1003.2 |
| 20260505050610 | 68 | 217 | 1.7 | 3.5 | 0.00 | 0.00 | 0.00 | 58 | 1003.0 |
| 20260505050109 | 67 | 129 | 0.9 | 3.5 | 0.00 | 0.00 | 0.00 | 58 | 1003.2 |
| 20260505041538 | 68 | 201 | 0.0 | 1.7 | 0.00 | 0.00 | 0.00 | 58 | 1003.6 |
| 20260505041036 | 68 | 179 | 5.2 | 15.6 | 0.00 | 0.00 | 0.00 | 58 | 1003.7 |
| 20260505040533 | 68 | 251 | 1.7 | 2.6 | 0.00 | 0.00 | 0.00 | 58 | 1003.8 |
| 20260505040030 | 68 | 215 | 3.5 | 5.2 | 0.00 | 0.00 | 0.00 | 58 | 1003.9 |
| 20260505035526 | 68 | 171 | 3.5 | 7.0 | 0.00 | 0.00 | 0.00 | 59 | 1003.8 |
| 20260505035023 | 68 | 220 | 3.5 | 7.0 | 0.00 | 0.00 | 0.00 | 58 | 1003.7 |
| 20260505034519 | 68 | 189 | 4.3 | 6.1 | 0.00 | 0.00 | 0.00 | 58 | 1003.7 |